Location: Cucq
(50.4773°N, 1.6202°E)
Time: 16:56:55
(UTC+00:00)

Cosmos 2219 - Pass Details

Date: 07 August 2020
Orbit: 834 x 860 km, 71.1° (Epoch: 24 September)

Event Time Altitude Azimuth Distance (km) Brightness Sun altitude
Exits shadow 02:27:08 23° 237° (WSW) 1,720 4.3 -15.7°
Maximum altitude 02:30:33 54° 306° (NW) 1,014 3.6 -15.4°
Drops below altitude 10° 02:36:03 10° 23° (NNE) 2,456 6.9 -14.9°
Sets 02:38:34 0° 28° (NNE) 3,394 8.1 -14.6°
